{"data":{"norad_id":58547,"intl_designator":"2023-192S","name":"STARLINK-31063","alt_names":[],"object_type":"PAYLOAD","status":"ACTIVE","operator":null,"country":"US","launch_date":"2023-12-08","launch_site_code":"AFWTR","launch_vehicle":null,"mission":null,"orbit_class":"UNKNOWN","rcs_meters":null,"size_class":null,"mass_kg":null,"dimensions":null,"purposes":["comms"],"wikipedia_slug":null,"has_3d_model":false,"image_url":null,"decayed_at":null,"tle_current":{"epoch":"2026-05-25T04:39:02.593728Z","epoch_age_seconds":54330,"freshness":"FRESH","line1":"1 58547U 23192S   26145.19378002 -.00004453  00000+0 -13824-3 0  9992","line2":"2 58547  53.1602  57.0441 0001061  82.5688 277.5434 15.30219687137841","mean_motion":15.30219687,"eccentricity":0.0001061,"inclination_deg":53.1602,"raan_deg":57.0441,"arg_perigee_deg":82.5688,"mean_anomaly_deg":277.5434,"bstar":-0.00013824,"rev_number":13784,"period_min":94.104134996663,"perigee_km":474.42915379826,"apogee_km":475.88342263402,"semimajor_km":6853.2932882161,"source":"CELESTRAK","updated_at":"2026-05-25T13:38:18.663728Z"}}}